Location: Alessandria
(44.9000°N, 8.6170°E)
Time: 18:19:08
(UTC+02:00)

ISS - Pass Details

Date: 14 May 2021
Orbit: 417 x 422 km, 51.6° (Epoch: 18 June)

Event Time Altitude Azimuth Distance (km) Brightness Sun altitude
Exits shadow 01:17:28 25° 15° (NNE) 888 -1.5 -26.5°
Drops below altitude 10° 01:19:41 10° 52° (NE) 1,509 -0.5 -26.5°
Sets 01:21:59 0° 64° (ENE) 2,375 0.4 -26.5°
